[[{"header":{"parameterUnit":"m.s-1","parameterCategory":1,"la1":30.2991,"la2":30.254,"lo1":-89.0895,"lo2":-89.0444,"dy":0.0017,"dx":0.0017,"nx":28,"ny":28,"refTime":"2023-10-15T21:00:00:Z","depth":0,"parameterNumber":2,"parameterNumberName":"U-component_of_WINDS"},"data":[0,0,0,0,0,0,0,0,0,0,0,0,0,0,0,0,0,0,0,0,0,0,0,0,0,0,0,0,0,0,0,0,0,0,0,0,0,0,0,0,0,0,0,0,0,0,0,0,0,0,0,0,0,0,0,0,0,0,1.8435,1.8435,0,1.846,1.846,1.846,1.8463,1.8463,1.8463,1.8463,1.8488,1.8489,1.849,0,0,0,0,0,0,0,0,0,0,0,0,0,1.8393,1.8394,1.8435,1.8435,1.8436,1.846,1.846,1.846,1.8463,1.8463,1.8463,1.8463,1.8488,1.8489,1.849,0,0,0,0,0,0,0,0,0,0,0,0,0,1.8414,1.8394,1.8435,1.844,1.8441,1.846,1.846,1.846,1.8463,1.8463,1.8463,1.8462,1.8487,1.8489,1.849,1.8505,0,0,1.8494,1.8495,0,0,0,0,0,0,0,0,1.8412,1.8415,1.8439,1.844,1.8441,1.8458,1.8454,1.8475,1.8464,1.8455,1.8463,1.8462,1.8478,1.848,1.8486,1.8506,1.8508,1.8494,1.8495,1.8496,1.8496,0,0,0,0,0,0,0,1.8411,1.8414,1.8445,1.844,1.844,1.8442,1.8444,1.8458,1.8468,1.8456,1.8456,1.8459,1.8479,1.8484,1.8486,1.8508,1.8494,1.8495,1.8496,1.8497,1.8544,1.8545,0,0,0,0,0,0,1.8409,1.8413,1.8444,1.8446,1.8425,1.8443,1.8446,1.8453,1.8468,1.847,1.8459,1.8459,1.8482,1.8485,1.8487,1.8507,1.8496,1.8497,1.8498,1.8544,1.8545,1.8545,0,0,0,0,0,0,1.8408,1.8411,1.8443,1.8429,1.8434,1.8444,1.8452,1.8454,1.8459,1.8471,1.8473,1.8463,1.8482,1.8485,1.8501,1.8508,1.8497,1.8499,1.8543,1.8544,1.8545,1.8547,0,0,0,0,0,0,1.8406,1.8411,1.8416,1.8429,1.8434,1.8456,1.8452,1.8454,1.8462,1.8461,1.8475,1.8477,1.8482,1.8499,1.8503,1.851,1.85,1.8543,1.8544,1.8545,1.8546,1.8547,1.8548,0,0,0,0,0,1.8405,1.8415,1.8416,1.842,1.8441,1.8456,1.8459,1.8465,1.8462,1.8468,1.8476,1.8476,1.8507,1.8501,1.8505,1.8512,1.8542,1.8544,1.8545,1.8545,1.8547,1.8548,0,0,0,0,0,0,1.8402,1.8417,1.8418,1.8434,1.8444,1.8457,1.8464,1.8466,1.8477,1.8477,1.8484,1.8487,1.8503,1.8509,1.8502,1.8529,1.8525,1.8526,1.8524,1.8525,1.8527,1.8525,1.8501,0,0,0,0,0,1.8404,1.8414,1.8427,1.8439,1.8444,1.8454,1.846,1.8464,1.8475,1.8479,1.8488,1.8499,1.8511,1.8519,1.853,1.8547,1.8551,1.8555,1.8556,1.8557,1.8558,1.8569,1.8571,1.8548,1.8548,1.8548,0,0,1.8406,1.8416,1.8422,1.8439,1.8447,1.8459,1.8457,1.8469,1.8478,1.8481,1.8497,1.8504,1.8516,1.8533,1.8541,1.8539,1.8565,1.8558,1.8559,1.856,1.857,1.8572,1.8574,1.8549,1.8549,1.8549,0,0,1.8417,1.8425,1.8436,1.8445,1.8458,1.8464,1.8467,1.8481,1.8485,1.8501,1.8504,1.8516,1.8536,1.8545,1.8553,1.8569,1.8571,1.8573,1.8579,1.8589,1.8591,1.8593,1.86,1.8602,1.8574,1.8574,1.8574,0,1.8418,1.8436,1.8442,1.8455,1.8462,1.8467,1.8479,1.8487,1.8503,1.8509,1.8507,1.8534,1.8542,1.8562,1.8566,1.8572,1.8576,1.8571,1.859,1.8592,1.8594,1.86,1.8603,1.8575,1.8575,1.8575,1.8575,0,1.8437,1.8449,1.8457,1.8473,1.8482,1.8494,1.8504,1.8512,1.8516,1.8523,1.854,1.8551,1.8565,1.857,1.8574,1.8591,1.859,1.8589,1.8585,1.8596,1.8602,1.8605,1.8575,1.8575,1.8575,1.8575,0,0,1.8445,1.8466,1.8469,1.8477,1.8492,1.8502,1.8516,1.853,1.8538,1.8549,1.8561,1.8579,1.8579,1.8588,1.8592,1.8602,1.8615,1.86,1.86,1.8603,1.8636,1.8637,1.8639,1.8617,1.8617,1.8618,1.8635,0,1.8458,1.8481,1.8489,1.8508,1.852,1.8526,1.8537,1.8549,1.8556,1.8568,1.8576,1.8589,1.8588,1.8593,1.8602,1.8612,1.8622,1.861,1.8628,1.8629,1.8625,1.8642,1.8643,1.8659,1.8638,1.8638,1.8639,0,1.8476,1.8488,1.8509,1.8525,1.853,1.854,1.8555,1.8566,1.858,1.8584,1.8595,1.8599,1.8614,1.861,1.8631,1.8623,1.8631,1.8637,1.8638,1.864,1.8634,1.8645,1.8664,1.8666,1.8642,1.8642,1.8642,0,1.848,1.8502,1.8518,1.8525,1.8543,1.855,1.8558,1.8571,1.858,1.8594,1.86,1.8615,1.8623,1.8635,1.8643,1.8639,1.8665,1.866,1.867,1.8669,1.8674,1.8674,1.8695,1.8679,1.8679,1.8679,1.8679,0,1.8493,1.8506,1.8521,1.853,1.8545,1.8554,1.8569,1.8577,1.8589,1.8601,1.8607,1.8618,1.8629,1.8642,1.865,1.8667,1.8671,1.8675,1.8677,1.8675,1.8674,1.868,1.8679,1.868,1.868,1.868,1.868,0,1.8501,1.8511,1.8528,1.8545,1.8549,1.856,1.8574,1.8584,1.8593,1.8608,1.8612,1.8625,1.8641,1.8651,1.8671,1.8676,1.8696,1.8697,1.8691,1.8692,1.8701,1.87,1.8726,1.873,1.8712,1.8712,1.8712,0,1.8508,1.8518,1.8536,1.8545,1.8553,1.8567,1.8576,1.8586,1.8596,1.8613,1.8621,1.8638,1.8651,1.8677,1.8688,1.8704,1.8706,1.8715,1.8709,1.8707,1.8707,1.8706,1.8708,1.8715,1.8715,1.8716,1.8716,0,1.8521,1.8526,1.8539,1.8555,1.8566,1.8579,1.8591,1.8598,1.8611,1.8622,1.8638,1.8649,1.867,1.8687,1.8704,1.8713,1.8717,1.8718,1.8721,1.8718,1.8715,1.8717,1.8694,1.8717,1.8717,1.8717,1.8717,1.8717,1.8529,1.8539,1.8553,1.8568,1.8579,1.8592,1.8602,1.8613,1.8626,1.8644,1.865,1.8667,1.8682,1.8706,1.8716,1.873,1.8729,1.8733,1.8735,1.8735,1.8736,1.8713,1.8733,1.8733,1.8733,1.8733,1.8733,0,1.8543,1.8553,1.8567,1.8585,1.8597,1.86,1.8615,1.8625,1.864,1.8654,1.8667,1.8687,1.8704,1.8718,1.8735,1.8744,1.8746,1.8748,1.8748,1.875,1.8735,1.8731,1.8746,1.8746,1.8746,1.8746,1.8746,1.8746,1.8551,1.8568,1.8575,1.8598,1.8608,1.8625,1.8634,1.8646,1.8657,1.8679,1.8693,1.8702,1.8716,1.8735,1.875,1.8754,1.876,1.8762,1.8766,1.8752,1.8751,1.8749,1.8746,1.8763,1.8763,1.878,1.878,1.878]},{"header":{"parameterUnit":"m.s-1","parameterCategory":1,"la1":30.2991,"la2":30.254,"lo1":-89.0895,"lo2":-89.0444,"dy":0.0017,"dx":0.0017,"nx":28,"ny":28,"refTime":"2023-10-15T21:00:00:Z","depth":0,"parameterNumber":3,"parameterNumberName":"V-component_of_WINDS"},"data":[0,0,0,0,0,0,0,0,0,0,0,0,0,0,0,0,0,0,0,0,0,0,0,0,0,0,0,0,0,0,0,0,0,0,0,0,0,0,0,0,0,0,0,0,0,0,0,0,0,0,0,0,0,0,0,0,0,0,-5.5652,-5.5652,0,-5.5684,-5.5684,-5.5685,-5.566,-5.5659,-5.5658,-5.5657,-5.5687,-5.5688,-5.569,0,0,0,0,0,0,0,0,0,0,0,0,0,-5.5568,-5.557,-5.5652,-5.5652,-5.5653,-5.5684,-5.5684,-5.5685,-5.5661,-5.5659,-5.5658,-5.5657,-5.5686,-5.5688,-5.569,0,0,0,0,0,0,0,0,0,0,0,0,0,-5.5603,-5.557,-5.5652,-5.5645,-5.5644,-5.5684,-5.5684,-5.5685,-5.5661,-5.5659,-5.5658,-5.5656,-5.5685,-5.5688,-5.569,-5.5738,0,0,-5.5698,-5.57,0,0,0,0,0,0,0,0,-5.5601,-5.5606,-5.5645,-5.5645,-5.5645,-5.5667,-5.5665,-5.5703,-5.5661,-5.5654,-5.5657,-5.5655,-5.5681,-5.5684,-5.5693,-5.5739,-5.5741,-5.5699,-5.57,-5.5701,-5.5702,0,0,0,0,0,0,0,-5.5598,-5.5604,-5.5665,-5.5646,-5.5646,-5.5639,-5.5642,-5.5672,-5.5676,-5.5655,-5.5653,-5.5658,-5.5681,-5.5691,-5.5694,-5.5741,-5.5699,-5.5701,-5.5703,-5.5704,-5.583,-5.5832,0,0,0,0,0,0,-5.5597,-5.5602,-5.5664,-5.5666,-5.5619,-5.5642,-5.5645,-5.5661,-5.5676,-5.5676,-5.5659,-5.5656,-5.5687,-5.5691,-5.5695,-5.5753,-5.5701,-5.5704,-5.5705,-5.5828,-5.583,-5.5832,0,0,0,0,0,0,-5.5595,-5.5603,-5.5662,-5.5634,-5.5641,-5.5645,-5.5663,-5.5663,-5.5673,-5.5679,-5.5679,-5.5669,-5.5686,-5.5691,-5.5728,-5.5753,-5.5705,-5.5707,-5.5826,-5.5829,-5.5831,-5.5868,0,0,0,0,0,0,-5.5593,-5.5602,-5.5621,-5.5634,-5.5642,-5.5696,-5.5664,-5.5664,-5.5678,-5.5675,-5.5688,-5.5689,-5.5685,-5.5724,-5.5731,-5.5756,-5.5709,-5.5824,-5.5827,-5.583,-5.5865,-5.5872,-5.5878,0,0,0,0,0,-5.559,-5.5629,-5.5622,-5.5629,-5.5666,-5.5697,-5.5702,-5.5698,-5.568,-5.5698,-5.5703,-5.5688,-5.575,-5.5728,-5.5735,-5.5762,-5.5822,-5.5826,-5.583,-5.5862,-5.5871,-5.5878,0,0,0,0,0,0,-5.5616,-5.563,-5.5623,-5.5667,-5.5681,-5.5693,-5.5716,-5.5707,-5.5726,-5.5722,-5.5715,-5.5719,-5.5758,-5.5763,-5.574,-5.581,-5.5783,-5.5788,-5.5805,-5.5813,-5.5819,-5.5817,-5.5712,0,0,0,0,0,-5.5627,-5.5653,-5.5663,-5.5701,-5.5709,-5.5712,-5.5725,-5.5721,-5.5735,-5.5741,-5.5748,-5.5761,-5.5784,-5.5798,-5.5819,-5.5866,-5.5869,-5.5887,-5.5894,-5.5899,-5.5904,-5.5931,-5.5939,-5.5845,-5.5845,-5.5845,0,0,-5.5649,-5.5661,-5.5677,-5.5707,-5.5717,-5.5744,-5.5717,-5.5745,-5.5764,-5.5745,-5.5781,-5.5787,-5.5801,-5.5844,-5.5863,-5.585,-5.5931,-5.5904,-5.5909,-5.5911,-5.5936,-5.5945,-5.5953,-5.5848,-5.5848,-5.5847,0,0,-5.5704,-5.5715,-5.5749,-5.5761,-5.5779,-5.578,-5.5789,-5.5803,-5.5806,-5.5843,-5.5829,-5.5852,-5.589,-5.5902,-5.5913,-5.5975,-5.5963,-5.5982,-5.6016,-5.6042,-5.6049,-5.6056,-5.6079,-5.6087,-5.5987,-5.5987,-5.5987,0,-5.573,-5.577,-5.5767,-5.5798,-5.5811,-5.5797,-5.5831,-5.5843,-5.5865,-5.5875,-5.586,-5.591,-5.5919,-5.5965,-5.598,-5.5989,-5.5998,-5.598,-5.6049,-5.6055,-5.6061,-5.6083,-5.6092,-5.5989,-5.5989,-5.5989,-5.5988,0,-5.5801,-5.5829,-5.5854,-5.5879,-5.5896,-5.5928,-5.593,-5.5947,-5.5942,-5.5946,-5.5984,-5.5994,-5.6018,-5.6028,-5.6023,-5.6074,-5.6065,-5.605,-5.6023,-5.6073,-5.6093,-5.6102,-5.5992,-5.5992,-5.5991,-5.599,0,0,-5.5872,-5.5897,-5.5906,-5.5918,-5.5937,-5.5959,-5.599,-5.6015,-5.6031,-5.6047,-5.6074,-5.6108,-5.6095,-5.6107,-5.6103,-5.6126,-5.6176,-5.6108,-5.6108,-5.6121,-5.6235,-5.6247,-5.6256,-5.6168,-5.617,-5.6171,-5.6234,0,-5.5928,-5.5986,-5.5985,-5.6037,-5.6064,-5.6052,-5.608,-5.6094,-5.6099,-5.6122,-5.6126,-5.6151,-5.6131,-5.6138,-5.616,-5.6165,-5.6199,-5.6161,-5.6193,-5.6194,-5.6191,-5.6267,-5.6279,-5.6338,-5.6242,-5.6243,-5.6244,0,-5.6002,-5.6024,-5.608,-5.6098,-5.6109,-5.6134,-5.6158,-5.6179,-5.6196,-5.6198,-5.6213,-5.6206,-5.6239,-5.6211,-5.6256,-5.623,-5.6243,-5.6248,-5.625,-5.6253,-5.6222,-5.6273,-5.6356,-5.6365,-5.6256,-5.6255,-5.6254,0,-5.605,-5.6092,-5.6132,-5.6143,-5.6164,-5.6182,-5.6191,-5.6207,-5.6223,-5.6243,-5.6253,-5.6276,-5.6289,-5.6307,-5.6307,-5.6287,-5.6353,-5.6325,-5.6355,-5.6355,-5.6369,-5.6369,-5.6457,-5.6377,-5.6377,-5.6377,-5.6377,0,-5.6113,-5.6148,-5.6154,-5.6178,-5.6218,-5.6216,-5.6255,-5.6262,-5.6277,-5.6302,-5.6292,-5.6316,-5.6314,-5.6338,-5.6337,-5.6375,-5.6381,-5.6383,-5.6383,-5.6384,-5.6384,-5.6393,-5.6389,-5.6379,-5.6379,-5.6378,-5.6378,0,-5.6173,-5.6178,-5.6221,-5.6238,-5.6244,-5.6272,-5.6286,-5.631,-5.6314,-5.6346,-5.6354,-5.636,-5.6389,-5.639,-5.6422,-5.6422,-5.6468,-5.6462,-5.6463,-5.6462,-5.6493,-5.649,-5.659,-5.6604,-5.6515,-5.6515,-5.6516,0,-5.6213,-5.624,-5.6262,-5.6279,-5.6291,-5.6318,-5.6335,-5.6335,-5.6353,-5.6375,-5.6396,-5.6423,-5.6445,-5.6491,-5.6498,-5.6522,-5.6518,-5.6551,-5.6521,-5.6523,-5.652,-5.6518,-5.6522,-5.6557,-5.6558,-5.6559,-5.6559,0,-5.6285,-5.6287,-5.6312,-5.634,-5.6361,-5.6381,-5.64,-5.6415,-5.6417,-5.6438,-5.6468,-5.6485,-5.6519,-5.6546,-5.6571,-5.658,-5.657,-5.6569,-5.6578,-5.658,-5.6579,-5.6581,-5.648,-5.6567,-5.6566,-5.6565,-5.6565,-5.6565,-5.6337,-5.6361,-5.6381,-5.641,-5.6425,-5.6444,-5.6468,-5.6476,-5.6502,-5.653,-5.6529,-5.6562,-5.6579,-5.6611,-5.6622,-5.6648,-5.6636,-5.6648,-5.6652,-5.6655,-5.6659,-5.6575,-5.6652,-5.6652,-5.6652,-5.6652,-5.6651,0,-5.6409,-5.6422,-5.6449,-5.6478,-5.6501,-5.6492,-5.6514,-5.6533,-5.6563,-5.6581,-5.6604,-5.6639,-5.6666,-5.6676,-5.6703,-5.6721,-5.6718,-5.6728,-5.6727,-5.673,-5.6667,-5.6657,-5.6731,-5.6731,-5.6731,-5.6731,-5.6731,-5.6731,-5.645,-5.6491,-5.6496,-5.6545,-5.6557,-5.6591,-5.6604,-5.6622,-5.6636,-5.6676,-5.67,-5.6707,-5.6722,-5.675,-5.6775,-5.6777,-5.6787,-5.68,-5.6801,-5.6742,-5.6734,-5.6726,-5.6717,-5.6802,-5.6802,-5.6861,-5.6862,-5.6862]}]]